Regional Weather Roundup
Issued by NWS

Home | Current Version | Previous Version | Text Only | Print | Product List | Glossary Off
Versions: 1 2 3 4 5 6 7 8 9 10 11 12 13 14 15 16 17 18 19 20 21 22 23 24 25 26 27

000
ASUS45 KSLC 251210
RWRUT

UTAH REGIONAL WEATHER ROUNDUP
NATIONAL WEATHER SERVICE SALT LAKE CITY UT
600 AM MDT THU AUG 25 2016

UTZ001>011-023>025-251300-

NORTHERN UTAH

CITY           SKY/WX    TMP DP  RH WIND       PRES   REMARKS
BRIGHAM CITY     N/A     51  35  53 CALM      30.12S
HILL AFB       CLEAR     55  23  29 E20       30.13S
LOGAN          PTCLDY    45  33  63 E3        30.15F
OGDEN          CLEAR     54  25  32 S6        30.11S
PROVO AIRPORT  MOCLDY    57  27  30 NE7       30.11F
SALT LAKE CITY CLEAR     60  32  34 CALM      30.09F
VERNAL         CLEAR     51  33  50 NW5       30.19R
WENDOVER       CLEAR     61  25  25 NW5       30.11S
HEBER CITY     MOCLDY    37  30  75 SE3       30.20F
WEST JORDAN    PTCLDY    55  30  38 CALM      30.12F

$$

UTZ012>022-026-027-251300-

SOUTHERN/CENTRAL UTAH

CITY           SKY/WX    TMP DP  RH WIND       PRES   REMARKS
BLANDING       MOCLDY    57  43  59 NE7       30.29S
BRYCE CANYON   CLEAR     38  35  89 W5        30.31S WCI  34
CEDAR CITY     CLEAR     49  39  68 CALM      30.15R
DELTA          CLEAR     52  18  25 N9        30.09S
MILFORD        PTCLDY    53  24  32 W9        30.11S
MOAB/CYNLANDS  PTCLDY    61  41  47 CALM      30.11R
PRICE          LGT RAIN  57  26  30 NE5       30.21R
ST GEORGE      PTSUNNY   73  46  38 SE6       30.00R

$$

REGIONAL REPORTS     COLORADO/ARIZONA

CITY           SKY/WX    TMP DP  RH WIND       PRES   REMARKS
CRAIG, CO      CLEAR     41  36  82 NW3       30.27R
GRAND JUNCTION CLEAR     59  46  62 E15       30.15R
RIFLE          CLEAR     49  43  80 SE3       30.21R
MONTROSE       CLOUDY    50  41  71 SE7       30.24S
CORTEZ         CLEAR     48  45  89 NW5       30.25R
PAGE, AZ       PTCLDY    68  43  40 SW3       30.09R
GRAND CANYON   PTCLDY    46  41  82 CALM      30.28S
KINGMAN        NOT AVBL
FLAGSTAFF      PTCLDY    45  44  97 CALM      30.31S

$$

REGIONAL REPORTS    NEVADA/IDAHO/WYOMING

CITY           SKY/WX    TMP DP  RH WIND       PRES   REMARKS
LAS VEGAS, NV  CLEAR     85  35  16 S13       29.85R
ELY            PTCLDY    39  18  42 S9        30.21S WCI  33
ELKO           MOCLDY    50  26  39 SW3       30.15S
POCATELLO, ID  CLEAR     47  36  65 E5        30.20S
EVANSTON, WY   CLOUDY    42  31  64 E9        30.29S
ROCK SPRINGS   NOT AVBL

$$




USA.gov is the U.S. government's official web portal to all federal, state and local government web resources and services.